Weather History for Martha's Vineyard, MA

Change the Weather History Date:

Wednesday, February 13, 2013

  Actual Average Record
Temperature  
Mean Temperature 34 °F -  
Max Temperature 39 °F 37 °F 55 °F (1966)
Min Temperature 28 °F 19 °F -2 °F (1954)
Degree Days  
Heating Degree Days 32    
Moisture  
Dew Point 25 °F    
Average Humidity 68    
Maximum Humidity 89    
Minimum Humidity 50    
Precipitation  
Precipitation 0.00 in - - ()
Sea Level Pressure  
Sea Level Pressure 29.81 in    
Wind  
Wind Speed 7 mph (West)    
Max Wind Speed 10 mph    
Max Gust Speed 20 mph    
Visibility 10 miles    
Events      
Averages and records for this station are not official NWS values.
T = Trace of Precipitation, MM = Missing Value Source: NWS Daily Summary

Daily Weather History Graph

Daily Weather History Graph

Search for Another Location

Airport:

Trip Planner

Search our weather history database for the weather conditions in past years. The results will help you decide how hot, cold, wet, or windy it might be!

Date:

Astronomy

Feb. 13, 2013 Rise Set
Actual Time 6:39 AM EST 5:14 PM EST
Civil Twilight 6:11 AM EST 5:42 PM EST
Nautical Twilight 5:38 AM EST 6:15 PM EST
Astronomical Twilight 5:06 AM EST 6:47 PM EST
Moon 8:04 AM EST (2/13) 9:17 PM EST (2/13)
Length of Visible Light 11h 31m
Length of Day
10h 34m
Waxing Crescent, 13% of the Moon is Illuminated
Feb 13
Waxing Crescent
Feb 17
First Quarter
Feb 25
Full
Mar 4
Last Quarter
Mar 11
New

Hourly Weather History & Observations

Time (EST) Temp. Windchill Dew Point Humidity Pressure Visibility Wind Dir Wind Speed Gust Speed Precip Events Conditions
12:53 AM 33.1 °F 26.9 °F 26.1 °F 75% 29.87 in 10.0 mi WSW 6.9 mph - N/A   Clear
1:53 AM 34.0 °F 28.0 °F 26.1 °F 73% 29.86 in 10.0 mi West 6.9 mph - N/A   Clear
2:53 AM 34.0 °F 28.0 °F 23.0 °F 64% 29.87 in 10.0 mi West 6.9 mph - N/A   Clear
3:53 AM 34.0 °F 27.2 °F 23.0 °F 64% 29.88 in 10.0 mi West 8.1 mph - N/A   Clear
4:53 AM 34.0 °F 27.2 °F 23.0 °F 64% 29.88 in 10.0 mi WNW 8.1 mph - N/A   Clear
5:53 AM 33.1 °F 24.9 °F 21.9 °F 64% 29.86 in 10.0 mi WNW 10.4 mph 19.6 mph N/A   Clear
6:53 AM 32.0 °F 24.8 °F 21.9 °F 66% 29.87 in 10.0 mi WNW 8.1 mph - N/A   Clear
7:53 AM 34.0 °F 28.8 °F 23.0 °F 64% 29.88 in 10.0 mi West 5.8 mph - N/A   Clear
8:53 AM 37.0 °F 31.6 °F 23.0 °F 57% 29.89 in 10.0 mi WNW 6.9 mph - N/A   Clear
9:53 AM 39.0 °F 32.8 °F 23.0 °F 53% 29.87 in 10.0 mi West 9.2 mph - N/A   Clear
10:53 AM 39.0 °F 36.8 °F 21.9 °F 50% 29.86 in 10.0 mi Variable 3.5 mph - N/A   Clear
11:53 AM 39.0 °F 36.8 °F 21.9 °F 50% 29.85 in 10.0 mi West 3.5 mph - N/A   Clear
12:53 PM 39.9 °F 33.4 °F 24.1 °F 53% 29.83 in 10.0 mi SSW 10.4 mph - N/A   Clear
1:53 PM 39.9 °F 34.5 °F 24.1 °F 53% 29.81 in 10.0 mi SSW 8.1 mph - N/A   Clear
2:53 PM 37.9 °F 32.1 °F 25.0 °F 60% 29.80 in 10.0 mi SSW 8.1 mph - N/A   Clear
3:53 PM 39.0 °F 34.8 °F 24.1 °F 55% 29.77 in 10.0 mi SW 5.8 mph - N/A   Clear
4:53 PM 34.0 °F 28.0 °F 25.0 °F 70% 29.77 in 10.0 mi SW 6.9 mph - N/A   Clear
5:53 PM 33.1 °F - 26.1 °F 75% 29.76 in 10.0 mi Calm Calm - N/A   Clear
6:53 PM 28.9 °F 25.2 °F 24.1 °F 82% 29.76 in 10.0 mi South 3.5 mph - N/A   Clear
7:53 PM 28.0 °F 24.2 °F 25.0 °F 88% 29.73 in 10.0 mi ENE 3.5 mph - N/A   Clear
8:53 PM 30.9 °F - 28.0 °F 89% 29.73 in 10.0 mi Calm Calm - N/A   Mostly Cloudy
9:53 PM 32.0 °F - 28.9 °F 88% 29.71 in 10.0 mi Calm Calm - N/A   Overcast
10:53 PM 33.1 °F 27.7 °F 28.9 °F 85% 29.65 in 10.0 mi NNE 5.8 mph - N/A   Overcast
11:53 PM 34.0 °F 28.8 °F 28.9 °F 82% 29.68 in 10.0 mi NNE 5.8 mph - N/A   Overcast